Regional Weather Roundup
Issued by NWS Mt. Holly, NJ

Home | Current Version | Previous Version | Text Only | Print | Product List | Glossary On
Versions: 1 2 3 4 5 6 7 8 9 10 11 12 13 14 15 16 17 18 19 20 21 22 23 24 25 26 27 28 29 30 31 32 33 34 35 36 37 38 39 40 41 42 43 44 45 46 47 48 49 50
000
ASUS41 KPHI 300911
RWRPHI

REGIONAL WEATHER ROUNDUP
NATIONAL WEATHER SERVICE MOUNT HOLLY NJ
500 AM EDT SUN APR 30 2017

NOTE:  "FAIR" INDICATES FEW OR NO CLOUDS BELOW 12,000 FEET WITH NO
SIGNIFICANT WEATHER AND/OR OBSTRUCTIONS TO VISIBILITY.

 * = STATION DOES NOT REPORT PRECIPITATION (E.G. RAIN, SNOW, ETC.)
        OR FOG.

NJZ015>026-301000-
SOUTHERN NEW JERSEY

CITY           SKY/WX    TMP DP  RH WIND       PRES   REMARKS
POMONA         CLOUDY    67  56  67 NE6       30.14R
WILDWOOD*      CLOUDY    68  57  68 E15G23    30.13R
MILLVILLE      CLOUDY    69  61  75 NE9       30.13R
WRIGHTSTOWN    PTCLDY    61  56  81 CALM      30.12S
MOUNT HOLLY    MOCLDY    64  55  72 CALM      30.14S
TRENTON        CLEAR     61  48  62 NE5       30.14S

$$
NJZ001>014-301000-
NORTHERN NEW JERSEY

CITY           SKY/WX    TMP DP  RH WIND       PRES   REMARKS
SUSSEX         CLEAR     53  44  71 N3        30.18R
ANDOVER*         N/A     53  45  74 CALM      30.16S
MORRISTOWN     MOCLDY    57  45  62 CALM      30.16S
NEWARK         MOCLDY    62  42  47 N9        30.15S
TETERBORO      MOCLDY    62  44  51 NE6       30.15R
CALDWELL       MOCLDY    60  43  53 NE3       30.16S
SOMERVILLE     CLEAR     58  46  64 NW3       30.13F
ALLAIRE*       MOCLDY    63  45  51 N7        30.16R
TOMS RIVER*    PTCLDY    58  56  93 CALM      30.15S

$$
PAZ043-044-047-054-055-060>062-066>071-301000-
EASTERN PENNSYLVANIA

CITY           SKY/WX    TMP DP  RH WIND       PRES   REMARKS
PHILADELPHIA   MOCLDY    66  55  67 E9        30.14S
NORTH PHILA    PTCLDY    64  51  62 NE9       30.15S
BLUE BELL*     CLEAR     59  54  82 NE3       30.15F
DOYLESTOWN     CLEAR     60  50  69 VRB3      30.14S
QUAKERTOWN*    CLEAR     59  50  72 CALM      30.15F
PERKASIE*      CLOUDY    57  52  82 NE5       30.15F
POTTSTOWN      PTCLDY    59  53  80 NE5       30.15F
LANCASTER      CLOUDY    63  57  81 E7        30.12F
COATESVILLE    PTCLDY    63  55  77 E13G20    30.15F
READING        CLEAR     60  53  77 NE6       30.12F
ALLENTOWN      CLEAR     56  48  74 NE6       30.15S
MOUNT POCONO   CLEAR     49  35  58 CALM      30.16S
HAZLETON       CLEAR     50  37  62 CALM      30.18F
LEHIGHTON      FAIR      52  45  76 CALM      30.16F
WILKES BARRE   CLEAR     52  37  56 E3        30.17F

$$
DEZALL-MDZ008-012-015-019-020-301000-
DELAWARE AND EASTERN MARYLAND

CITY           SKY/WX    TMP DP  RH WIND       PRES   REMARKS
WILMINGTON     CLOUDY    68  59  73 E7        30.13R
DOVER          CLOUDY    70  70 100 N5        30.11R
GEORGETOWN     MOCLDY    73  70  90 NE7       30.11R FOG
EASTON         CLEAR     73  70  89 NE3       30.12S
ABERDEEN       CLOUDY    68  59  72 E10       30.11S
PATUXENT       CLEAR     74  72  93 SW9       30.08S
OCEAN CITY     CLEAR     68  67  96 SW3       30.12R FOG
WALLOPS ISLAND CLEAR     67  67 100 CALM      30.12R FOG
SALISBURY      CLEAR     69  69 100 S3        30.10S FOG

$$
PAZ001-021-NYZ056-072-MDZ011-DCZ001-301000-
OTHER NEARBY LOCATIONS

CITY           SKY/WX    TMP DP  RH WIND       PRES   REMARKS
HARRISBURG     CLOUDY    64  57  78 E6        30.11F
STATE COLLEGE  PTCLDY    54  51  91 NE5       30.13F
WILLIAMSPORT   CLOUDY    55  45  68 N5        30.15S
BINGHAMTON     CLOUDY    42  34  73 NE3       30.20R
NEW YORK CITY  PTCLDY    63  45  51 NE8       30.18R
BALTIMORE      MOCLDY    71  64  78 E9        30.08S
WASHINGTON DC  CLEAR     73  71  93 S3        30.06F

$$



USA.gov is the U.S. government's official web portal to all federal, state and local government web resources and services.